Wind_Speed
32 32 30 31 30 32 30 31 30 29 29 27 27 25 24 23 22 21 22 23 23 23 24 24 24 24 24 24 23 23 22 22 22 22 23 24 24 24 23 22 20 19 18 19 20 20 20 20 19 18 18 18 18 20 21 23 23 24 24 23 23 22 21 20 19 19 18 16 16 16 15 16 16 15 11 10 13 15 15 16 16 16 15 13 13
37 34 33 32 32 32 31 31 30 30 29 28 26 25 25 23 22 21 22 22 23 23 23 24 24 24 24 24 23 22 22 22 22 23 24 24 24 23 21 20 18 18 19 21 21 21 20 20 19 18 18 19 20 21 23 23 24 24 23 23 23 22 22 20 19 17 16 16 16 15 15 15 16 15 11 10 12 14 15 15 15 15 14 13 13
40 38 36 33 33 32 32 31 30 30 29 29 26 25 24 23 22 21 22 22 23 23 23 24 24 24 24 23 23 22 22 22 23 23 23 22 21 21 20 19 17 18 21 21 20 21 21 20 19 18 19 19 21 22 23 24 24 23 23 23 23 23 22 20 19 17 16 15 15 13 13 13 13 13 12 12 12 12 13 14 14 14 13 12 12
41 42 39 36 34 33 32 31 31 30 30 29 26 25 24 23 22 21 22 23 23 23 23 23 23 24 23 23 22 22 22 22 22 22 22 21 19 19 18 17 17 19 21 21 20 21 20 19 18 18 19 20 20 22 23 23 22 21 21 21 21 21 20 20 18 17 16 15 14 12 12 13 13 12 12 12 12 12 12 13 13 13 13 12 11
42 42 43 40 36 35 33 31 32 31 30 29 27 25 24 23 22 22 22 23 23 23 23 23 23 23 23 22 22 22 22 21 21 21 20 20 19 18 17 16 18 20 21 21 20 20 19 18 17 17 18 19 20 21 22 21 20 19 18 18 17 17 16 16 15 15 15 14 12 11 12 12 12 12 12 12 12 11 11 12 12 12 12 12 12
43 42 42 42 39 37 34 32 32 31 31 29 28 26 24 23 22 22 22 23 24 23 23 23 23 22 22 22 22 22 21 20 20 19 19 19 19 17 16 16 19 20 21 20 19 19 18 17 16 16 17 18 18 19 20 19 18 17 16 15 14 13 12 12 11 10 11 12 10 9 11 11 11 12 12 13 12 10 10 10 10 11 11 11 11
43 42 42 43 41 39 36 34 33 32 31 30 28 26 25 24 23 23 23 23 23 23 23 22 22 22 23 23 22 21 20 20 19 19 18 19 18 17 15 16 20 21 20 19 18 18 17 16 16 16 16 16 17 17 18 18 16 15 14 12 11 10 9 8 7 6 6 8 7 8 9 9 10 11 10 11 12 11 10 9 9 10 10 10 11
41 38 40 43 42 40 37 35 34 33 32 31 29 27 25 24 24 23 23 23 23 23 22 22 22 22 23 23 22 20 19 19 18 18 17 17 17 16 15 17 20 21 19 18 17 16 16 16 15 15 15 15 16 16 17 17 15 13 12 10 9 8 7 7 6 5 3 6 6 7 8 9 9 9 9 9 11 11 10 9 8 9 9 8 9
43 37 38 41 40 40 38 36 35 34 33 31 30 27 26 25 24 24 23 23 23 23 23 23 22 22 22 22 21 19 19 18 18 17 16 16 16 15 15 18 20 20 19 17 16 15 15 15 15 15 15 15 14 15 15 15 13 11 10 8 8 7 7 8 10 6 5 9 8 8 8 8 8 8 8 8 8 9 8 7 6 7 8 8 8
45 40 40 40 40 40 37 36 35 35 33 32 31 28 27 26 25 24 24 23 23 23 23 23 22 22 21 21 20 19 18 18 17 15 15 15 15 14 15 19 20 19 18 16 15 14 14 14 14 14 14 14 13 13 13 12 10 9 8 7 7 7 8 10 12 6 7 10 10 10 9 9 8 8 8 7 7 7 6 5 5 6 7 7 7
45 43 42 40 40 39 38 36 35 35 33 33 31 29 27 26 26 25 25 24 23 23 23 23 22 22 21 21 19 19 18 17 16 14 13 13 14 14 16 19 19 19 17 16 15 14 13 13 13 14 14 13 12 12 11 10 9 7 5 6 6 7 7 10 12 8 7 9 10 10 10 9 8 8 8 6 6 6 6 6 5 6 6 6 6
46 45 43 41 40 38 37 36 35 35 34 33 32 30 28 27 26 25 25 24 24 23 22 23 22 22 21 21 20 19 17 16 16 14 13 13 13 14 16 18 19 18 16 15 14 13 13 12 12 13 13 13 12 10 9 8 7 5 4 5 6 6 6 8 10 8 4 6 9 10 10 8 8 8 7 6 6 6 5 6 5 5 5 5 5
46 46 44 42 40 37 36 36 36 35 34 33 32 31 29 28 27 26 25 25 24 23 22 22 22 22 21 21 20 19 17 16 15 14 12 12 14 14 15 17 18 17 16 15 14 13 12 12 12 12 12 12 11 10 9 7 6 4 4 5 5 5 5 7 8 9 5 6 9 9 10 7 7 8 7 6 6 6 5 5 5 4 4 4 4
48 47 46 44 40 38 36 35 36 35 35 34 32 31 30 29 27 27 26 25 25 23 23 22 22 22 22 21 20 19 17 16 15 13 12 12 13 15 15 16 17 17 16 15 13 13 12 11 11 11 11 11 10 9 8 7 6 5 4 5 5 5 6 8 9 10 4 7 11 9 9 6 7 8 7 7 6 6 5 5 5 4 4 4 3
51 52 48 45 42 39 37 36 36 35 35 34 33 32 31 30 28 27 26 25 25 23 23 22 22 22 22 21 20 19 18 17 15 13 12 12 13 15 15 15 17 17 16 14 13 12 11 11 10 10 10 10 9 8 7 6 5 4 3 4 5 5 7 8 10 10 3 7 12 10 8 6 6 7 7 7 7 6 5 5 4 4 3 3 3
45 52 50 47 45 42 39 37 37 36 35 34 34 32 31 30 29 27 26 26 24 23 23 22 22 22 22 21 21 20 18 17 16 14 12 12 12 14 14 15 16 16 16 14 13 12 11 11 10 10 9 9 8 7 6 4 3 2 3 4 4 5 7 8 12 10 1 10 13 10 8 6 6 7 6 7 7 6 5 5 4 4 3 3 2
38 46 49 49 47 45 41 38 37 36 35 35 34 33 32 31 29 28 27 26 25 24 23 22 22 23 23 22 21 20 19 18 16 14 12 12 12 13 14 14 15 16 16 14 13 12 11 11 10 9 8 8 7 6 4 3 2 1 2 3 4 5 6 9 13 9 3 12 13 10 8 6 6 6 6 7 6 6 5 5 5 4 3 2 2
40 41 45 47 47 45 42 39 37 36 35 35 34 34 32 31 30 29 28 27 25 24 23 23 22 23 23 22 21 20 19 18 16 14 12 13 13 13 13 13 14 15 15 15 14 12 11 11 10 9 8 7 6 5 4 3 2 2 1 2 3 5 7 10 11 7 6 14 12 8 7 6 6 6 6 6 6 6 5 5 5 4 4 3 3
44 42 44 45 45 44 43 39 36 36 36 36 35 34 33 32 31 30 29 27 25 24 24 23 23 24 23 22 22 20 19 18 17 15 13 13 14 14 13 13 13 14 15 15 15 13 12 11 10 9 8 7 6 5 5 4 4 4 4 3 3 4 6 9 9 5 7 14 10 6 6 5 6 6 6 6 6 5 5 4 5 4 4 3 3
42 43 43 44 44 44 42 40 37 37 36 36 36 35 34 33 31 30 29 27 25 25 24 24 24 24 24 23 22 21 20 19 18 15 14 13 14 14 13 13 13 13 15 16 16 15 13 12 11 10 9 7 6 6 5 5 5 5 5 4 2 2 5 7 6 5 8 11 7 5 6 5 6 6 7 6 6 5 4 4 4 5 4 3 2
39 41 42 42 43 43 42 40 39 38 36 36 36 35 35 33 32 30 29 27 26 26 26 26 25 25 24 23 23 22 21 19 18 16 15 14 15 15 14 14 13 13 14 16 16 16 15 13 12 10 9 7 7 7 6 6 6 5 5 4 2 0 2 4 6 6 8 8 6 5 5 5 5 6 7 7 6 5 4 3 4 4 4 3 2
36 38 39 41 42 43 43 41 40 38 37 36 36 36 35 34 33 31 30 28 27 27 27 27 26 26 24 24 24 23 22 20 18 17 16 15 16 16 16 15 14 14 14 15 16 17 16 14 12 11 10 9 9 8 8 6 6 5 4 4 4 3 2 2 5 5 5 6 5 5 5 5 5 6 8 8 7 5 4 3 3 3 3 3 3
35 37 39 42 42 43 43 43 42 40 38 37 36 36 35 34 34 32 31 30 29 29 29 28 28 27 26 25 25 24 23 21 18 17 16 16 16 16 17 16 16 15 15 15 16 16 15 14 13 12 11 11 11 10 9 8 7 6 6 6 5 5 4 3 2 3 5 5 4 4 4 4 4 6 8 8 7 5 4 4 3 3 3 3 4
38 41 42 43 43 44 43 43 43 42 40 38 37 37 36 35 35 34 33 33 31 31 31 30 29 29 28 27 25 24 23 21 18 17 16 16 16 16 17 17 17 17 16 16 16 15 14 13 13 13 13 12 12 11 10 9 8 7 8 8 8 8 7 6 5 4 6 7 4 3 4 4 5 7 9 9 7 5 4 4 3 3 3 3 4
40 40 40 43 45 46 44 43 43 43 41 39 38 38 37 36 35 35 35 35 35 33 32 32 31 30 29 27 26 24 23 21 19 18 17 16 16 16 16 17 18 18 18 17 16 15 13 13 12 13 13 13 12 11 11 11 10 9 9 8 9 10 8 8 7 5 8 8 5 3 3 4 5 7 10 10 8 6 4 4 3 3 3 4 4
36 38 40 43 45 47 47 46 44 43 42 40 39 38 38 37 36 36 36 36 36 35 33 33 33 32 30 28 27 26 24 22 21 20 19 17 16 15 15 16 17 18 18 17 16 15 14 13 12 13 12 12 12 11 11 11 10 10 11 10 11 10 9 9 7 7 9 8 5 4 4 4 5 7 10 10 8 6 4 4 3 3 3 3 4
37 38 41 42 43 45 46 47 46 44 41 39 39 38 38 37 37 37 37 37 37 36 35 35 35 33 31 29 28 27 25 24 23 22 20 18 16 15 15 15 15 15 16 16 15 15 14 13 12 12 11 11 11 11 11 12 11 12 13 13 12 11 10 10 9 10 10 8 6 4 4 4 4 7 11 10 8 6 4 4 4 4 4 4 5
39 38 39 40 41 43 44 45 46 44 42 40 39 38 37 38 37 37 37 37 38 38 38 37 36 34 32 31 30 28 27 26 25 23 21 20 17 15 14 14 14 14 14 14 14 13 13 12 12 11 11 11 11 11 11 11 11 13 15 15 12 11 11 10 10 10 10 9 7 5 4 4 4 8 11 10 7 6 5 4 4 4 5 5 5
32 38 39 39 40 41 43 45 45 45 43 42 41 38 38 38 37 37 37 36 37 39 39 38 37 35 33 32 31 30 29 27 26 24 22 21 18 15 14 13 13 13 14 14 13 12 12 11 11 10 11 10 9 9 9 10 12 14 17 16 11 11 11 11 11 11 10 9 7 5 4 3 5 9 11 10 7 6 5 5 5 5 6 6 5
23 30 34 38 41 41 43 45 47 46 44 43 42 40 39 38 38 38 37 36 37 37 38 39 38 36 35 34 33 31 30 29 26 24 23 21 19 17 15 13 11 12 14 14 13 12 12 11 10 10 10 9 9 9 9 12 14 16 16 12 10 12 11 10 11 11 10 8 7 6 4 3 6 10 11 9 8 7 6 5 5 6 6 5 5
24 25 27 32 38 41 42 43 45 46 45 44 43 41 40 39 38 38 37 36 36 36 37 38 38 38 37 36 34 32 31 29 27 25 24 21 20 19 17 15 12 11 14 15 13 12 11 10 9 8 9 8 8 9 11 14 15 15 11 9 12 13 12 10 10 10 9 8 8 7 5 5 8 11 11 9 9 8 6 6 6 6 6 5 4
26 28 26 27 32 38 41 42 42 42 44 44 43 41 40 38 37 37 36 36 36 36 36 37 38 38 38 37 36 33 31 30 28 27 25 22 22 20 18 16 14 12 12 14 13 12 12 11 9 8 8 8 9 10 12 13 13 13 8 11 13 13 11 10 10 9 7 8 8 7 6 7 10 11 10 10 9 8 7 6 6 7 6 5 4
23 28 27 26 29 33 37 41 41 40 40 41 41 40 39 37 37 37 36 36 35 35 36 35 36 37 37 37 36 34 32 31 30 28 26 23 22 21 19 18 15 13 12 12 12 12 13 13 12 11 11 10 11 12 12 12 12 10 8 14 13 12 10 10 10 8 6 8 9 8 7 9 11 12 11 9 9 8 7 6 6 6 6 4 3
19 27 29 29 29 29 32 36 40 40 38 37 37 38 38 37 36 36 35 35 35 35 35 34 34 34 36 37 36 35 34 32 30 28 27 25 23 22 21 18 16 15 13 13 12 12 14 15 14 13 14 14 13 13 13 13 11 7 11 15 12 12 11 10 9 7 6 8 10 9 8 10 11 12 11 10 9 8 7 7 6 6 6 5 3
22 27 32 33 32 30 31 33 37 39 37 36 37 37 37 37 36 35 34 35 35 35 33 33 33 33 35 36 35 35 34 33 30 28 27 26 25 23 22 19 16 17 15 14 13 12 12 13 13 12 15 15 14 14 13 12 10 5 13 15 12 12 11 10 9 7 7 9 10 9 9 10 11 12 12 11 10 8 7 7 7 6 6 5 3
30 31 33 35 34 32 32 32 34 36 37 36 35 35 35 35 35 34 34 34 34 34 33 32 32 33 34 35 35 35 33 33 31 28 27 26 25 23 23 20 17 18 17 16 15 14 13 12 11 10 12 12 12 13 13 12 10 5 13 14 12 12 11 11 10 8 8 9 10 10 10 11 11 13 13 12 10 8 7 6 7 6 6 4 3
36 33 34 37 36 35 34 34 36 36 37 37 35 33 33 34 33 33 33 33 33 33 32 32 32 33 34 35 35 35 33 33 31 28 26 26 25 22 22 21 18 18 19 18 17 17 15 14 13 11 12 11 9 11 13 14 12 6 11 14 12 12 11 11 10 9 9 10 10 10 10 11 12 13 13 12 11 9 7 7 6 6 5 4 3
34 33 34 37 38 37 37 37 37 36 36 38 37 35 32 32 32 31 31 32 32 32 32 31 32 33 35 35 35 35 34 32 32 29 25 25 26 22 21 22 19 19 20 19 18 18 17 16 16 13 13 13 10 10 12 14 12 7 9 15 13 11 10 10 11 10 9 10 11 11 11 12 13 14 13 12 11 10 8 8 7 6 5 5 4
28 33 35 37 38 37 37 37 36 35 35 37 37 34 31 32 32 30 30 32 31 31 32 33 33 34 34 35 35 35 35 33 32 30 25 24 25 23 21 21 20 20 21 20 19 18 17 16 16 15 14 15 13 12 12 12 10 8 9 15 13 10 10 9 9 9 8 10 11 12 12 12 13 14 13 12 11 10 9 8 7 7 7 6 5
24 31 35 36 37 37 36 36 37 36 35 36 36 34 32 32 33 31 31 33 33 32 34 34 34 34 34 35 35 35 35 33 32 31 27 25 24 22 20 20 20 20 21 21 20 18 16 15 16 16 14 15 16 16 14 10 6 4 8 14 10 8 8 7 6 6 8 10 12 13 14 14 14 14 13 12 11 10 9 8 8 8 7 7 6
25 30 35 36 38 37 37 37 36 35 35 36 38 36 34 34 34 34 33 34 34 34 34 35 34 35 35 35 35 35 34 33 32 31 29 27 24 21 19 17 18 20 20 21 20 18 16 15 15 15 14 14 17 17 15 10 5 5 8 9 8 8 6 5 4 5 8 12 14 15 15 15 15 15 14 13 12 11 10 10 10 10 8 7 7
28 31 35 37 39 38 38 39 37 36 37 38 38 37 35 35 35 34 33 34 35 35 35 36 35 34 35 35 35 34 34 34 33 31 31 29 26 23 20 17 17 19 19 18 17 16 15 14 15 14 13 13 15 15 15 10 7 8 8 5 4 5 6 5 3 4 8 12 15 16 17 16 16 16 14 14 13 11 11 12 12 11 9 8 7
29 34 36 35 37 38 38 38 39 38 39 39 38 37 35 34 33 33 33 32 33 34 34 35 35 34 36 37 36 36 35 35 34 32 31 29 27 26 22 19 18 19 18 17 15 15 15 15 15 15 14 13 13 14 15 14 9 8 6 3 2 2 3 4 3 4 8 13 16 18 18 18 17 16 15 15 15 13 13 14 13 12 11 9 8
24 30 36 35 34 37 39 39 41 40 38 39 39 36 34 32 31 32 33 31 29 30 30 31 33 35 37 38 38 37 36 36 34 32 31 28 28 27 24 21 20 20 19 18 16 16 16 17 16 16 15 14 14 14 15 16 13 9 5 1 1 2 1 5 5 4 7 13 18 20 20 20 19 17 17 16 16 15 15 15 15 13 12 11 9
24 23 28 35 35 35 39 41 41 40 38 39 38 35 33 31 30 29 30 29 27 27 27 29 34 36 37 38 38 38 37 36 34 32 29 27 28 28 26 23 21 21 20 19 18 16 17 19 18 17 17 15 14 15 15 16 16 13 10 4 2 1 2 4 5 3 7 13 19 21 21 21 20 18 18 17 18 18 16 17 17 15 14 13 11
28 24 23 30 38 37 39 41 41 39 37 37 37 35 34 33 32 30 30 29 27 28 31 33 36 37 36 37 37 37 37 35 33 31 28 26 27 28 28 25 23 23 22 20 18 17 19 22 20 19 19 16 15 16 15 16 16 16 16 13 9 7 4 4 4 2 5 9 14 20 22 22 21 19 19 19 19 19 18 18 18 17 16 14 13
29 32 26 27 35 39 38 40 40 37 34 34 35 35 34 34 34 33 32 30 28 30 33 33 34 34 34 35 36 36 36 34 32 31 29 27 26 27 27 26 24 24 23 21 18 19 22 22 19 18 19 17 16 18 17 16 16 15 16 18 16 13 9 7 5 3 3 4 10 18 21 20 19 19 20 20 19 19 20 20 20 20 18 16 15
33 37 31 29 32 35 36 37 38 35 33 33 35 35 34 35 34 32 31 30 29 28 29 29 30 30 31 34 36 36 35 34 33 32 30 28 27 26 25 24 23 23 23 20 18 20 23 21 18 17 18 18 18 19 19 18 16 14 13 15 14 11 11 11 10 7 4 1 4 9 13 13 14 17 19 19 19 19 21 22 22 22 21 19 16
35 36 35 32 33 34 35 37 37 36 35 36 37 37 37 35 34 32 29 29 29 28 26 25 27 29 30 33 34 35 35 35 34 33 31 29 26 25 24 23 21 22 22 19 17 21 23 20 17 18 19 19 19 20 21 21 20 17 13 14 13 11 11 10 10 9 4 3 2 3 5 7 10 16 20 18 18 19 21 21 22 23 23 21 18
31 36 38 34 34 35 36 37 38 39 38 39 40 39 37 35 33 32 30 28 28 28 26 24 25 28 30 31 33 34 35 35 35 33 31 28 25 23 22 22 21 21 22 19 17 20 23 19 17 18 18 18 19 21 22 23 23 21 19 17 16 14 12 8 9 10 3 4 5 4 6 8 7 12 17 17 18 20 21 21 21 23 23 22 19
23 31 37 37 35 35 39 38 39 40 39 38 39 38 37 36 34 32 31 30 29 29 28 26 26 29 30 31 32 33 35 36 35 33 31 28 24 23 22 22 21 21 23 21 18 19 22 20 17 17 18 19 20 21 21 21 22 23 23 22 21 19 16 13 14 15 9 6 6 4 7 12 11 13 14 14 20 23 22 21 21 22 23 22 19
Wind_Direction
169 169 164 158 157 157 160 157 152 149 147 146 147 146 144 142 141 138 137 137 135 134 133 132 132 131 130 128 127 125 123 122 121 122 122 123 122 120 118 116 116 116 116 118 122 123 123 123 121 121 120 119 117 116 116 115 112 110 109 107 105 104 102 103 105 109 109 107 105 104 102 98 98 105 103 96 98 98 97 97 96 93 90 86 86
169 168 164 159 158 158 161 158 155 152 148 149 149 149 146 145 143 140 140 139 137 136 134 133 132 132 131 129 127 125 124 123 123 123 124 124 121 120 117 116 116 118 119 121 122 122 121 119 118 118 118 118 117 117 117 115 113 111 110 108 107 105 103 103 105 108 108 107 105 103 101 100 103 110 110 106 101 95 93 95 94 93 92 92 90
166 166 164 160 159 160 162 160 158 154 150 150 151 151 148 148 145 143 143 141 140 138 137 134 133 132 131 130 128 127 125 125 125 125 125 123 121 119 118 118 119 120 121 121 120 120 118 116 116 116 117 117 118 120 119 118 116 114 113 111 109 107 105 103 103 104 105 105 103 103 104 106 108 112 113 107 102 100 96 95 96 93 92 92 90
167 165 161 160 161 161 164 163 160 157 152 151 153 153 150 150 148 147 145 144 143 141 139 136 135 134 133 131 129 129 127 127 128 127 125 123 121 120 121 121 121 122 122 120 118 116 114 113 114 114 115 117 120 123 123 121 119 118 116 114 112 109 107 104 102 101 101 103 102 102 107 111 112 114 114 107 100 99 97 94 94 94 95 92 90
169 166 161 159 161 162 165 165 162 159 153 152 155 154 153 153 151 150 148 147 146 143 142 139 138 136 135 134 131 131 130 130 129 127 126 124 123 123 124 124 125 125 123 120 117 114 113 113 112 113 115 117 122 126 127 124 122 120 118 116 114 111 107 103 101 100 99 100 103 106 108 111 112 114 112 108 103 97 99 97 97 96 95 93 91
170 167 163 159 161 163 166 167 163 160 155 153 156 156 156 155 155 152 150 150 148 146 144 143 141 140 139 137 135 134 133 133 130 128 126 126 125 125 125 127 130 127 124 121 118 115 113 112 111 111 113 117 123 129 130 127 124 121 119 115 111 107 102 97 94 97 99 99 106 110 110 111 111 111 108 108 108 105 109 109 104 102 99 98 97
168 166 165 161 160 163 166 168 165 161 157 155 157 157 157 157 157 154 153 152 150 148 145 144 143 142 142 140 138 135 135 134 131 128 127 129 128 128 128 131 133 129 126 123 120 117 114 112 110 110 111 116 122 129 133 130 125 122 119 114 106 100 96 92 87 89 106 111 114 118 113 111 110 107 107 109 110 109 111 111 105 106 105 103 106
167 166 165 162 160 163 166 168 166 163 159 157 158 159 159 159 159 156 155 154 152 148 145 145 144 144 143 141 139 136 136 134 131 130 130 132 132 132 132 136 136 131 129 126 123 119 116 113 110 109 111 114 119 127 132 131 126 123 119 113 106 98 91 80 61 59 136 160 143 137 123 111 113 106 108 114 112 111 112 114 109 105 105 104 107
167 166 164 163 161 163 166 168 167 164 162 159 160 161 162 161 161 159 157 156 154 150 147 147 146 145 143 142 139 137 137 135 133 132 134 137 137 136 137 140 138 135 132 130 127 122 118 114 112 110 110 112 115 124 131 132 127 122 114 104 99 89 80 62 47 55 158 172 160 151 133 114 114 108 113 119 111 111 114 120 118 109 106 104 99
165 166 165 164 163 164 166 167 167 165 163 162 161 162 163 163 162 161 159 158 155 152 150 150 150 148 145 143 140 138 138 137 134 134 138 141 142 140 142 143 141 139 136 134 130 124 121 117 114 111 110 110 113 120 128 133 131 125 110 89 84 76 72 55 50 80 158 160 157 153 133 118 116 108 117 122 114 112 114 122 119 110 107 103 96
163 165 166 165 165 166 166 168 168 167 165 164 163 164 165 165 164 163 161 160 157 156 153 152 153 152 149 146 143 141 141 141 138 138 142 144 146 144 146 146 145 144 140 139 134 129 125 120 117 114 112 111 113 118 124 131 132 127 106 77 70 67 66 50 54 84 139 151 155 150 135 124 118 108 115 122 119 117 117 124 119 113 109 103 99
162 164 165 166 166 166 166 168 169 168 168 166 165 165 166 166 166 165 163 161 159 158 155 154 156 156 154 149 146 144 144 146 143 143 144 146 151 148 148 150 149 147 146 145 139 134 130 126 122 119 117 115 115 118 123 128 129 123 97 71 64 57 51 43 48 55 85 163 167 150 142 130 117 110 112 118 121 121 124 129 122 115 110 100 99
161 162 164 165 166 167 168 169 169 170 169 168 166 166 167 167 168 167 165 163 161 160 157 156 157 159 157 152 150 148 147 149 147 147 146 147 153 153 151 153 154 153 153 150 143 138 135 132 128 125 123 121 121 120 124 126 126 115 91 71 61 50 39 33 29 25 39 179 183 158 149 134 119 116 113 117 120 124 128 133 125 115 109 99 100
161 161 164 165 165 167 169 170 170 170 170 170 168 167 168 169 170 169 167 164 162 162 160 159 159 159 158 155 153 150 150 152 150 150 149 148 153 156 156 158 159 159 159 154 148 146 142 140 136 134 130 129 129 128 129 128 127 111 91 70 51 38 28 22 23 17 17 175 184 174 157 138 123 120 118 118 115 122 128 131 127 119 113 103 103
163 163 164 164 165 167 171 172 171 171 171 171 169 169 169 170 171 170 169 166 165 164 163 161 160 160 159 157 156 154 155 156 153 153 154 150 153 157 161 163 165 165 164 160 156 154 151 149 147 144 140 139 138 139 140 136 130 109 83 60 47 36 26 16 24 21 356 178 182 183 161 146 131 126 125 121 115 119 126 131 129 121 110 101 101
164 162 163 164 165 167 171 172 172 172 172 173 171 170 170 171 172 172 171 169 168 166 165 164 163 163 161 160 160 160 161 161 157 159 160 154 153 158 164 168 170 171 170 168 165 163 161 160 158 155 152 149 148 149 149 145 138 108 77 55 56 44 26 12 17 22 30 175 180 185 167 157 143 135 133 127 119 115 122 134 133 125 112 95 87
163 161 161 163 165 167 170 171 171 172 173 173 172 171 171 172 173 173 173 172 171 169 168 167 166 165 163 162 163 165 166 166 161 161 164 160 157 160 167 172 175 177 177 176 175 173 172 172 169 166 164 162 161 158 161 165 168 128 67 52 63 43 22 19 18 21 151 172 178 182 173 166 154 146 142 134 124 114 120 133 131 123 108 82 60
164 162 160 161 163 164 167 168 169 171 171 172 173 172 172 172 174 175 176 175 173 171 170 168 167 166 164 164 166 168 169 169 164 162 167 166 163 164 170 176 179 182 183 184 185 184 182 184 182 179 179 177 179 181 196 211 234 273 332 21 51 35 23 28 27 32 150 169 174 177 176 171 159 157 153 143 132 119 117 120 119 108 85 65 47
165 164 161 160 161 162 165 166 168 170 170 171 173 173 172 174 175 177 178 177 175 172 170 168 167 165 163 166 168 169 171 172 168 167 171 172 170 170 174 179 183 187 189 192 194 195 194 193 193 192 194 196 204 215 228 243 261 284 307 332 28 35 29 33 39 57 142 165 170 172 176 171 162 166 164 152 140 127 116 111 112 109 87 68 47
163 163 161 161 162 162 164 166 168 170 170 170 172 173 173 175 177 178 179 178 176 173 171 169 167 165 165 169 169 169 172 173 172 171 172 176 178 176 178 180 185 191 195 199 200 203 204 203 203 203 207 214 226 239 249 260 272 285 298 309 353 39 30 37 60 99 146 161 168 170 174 168 165 175 171 160 150 136 121 114 115 111 85 65 46
160 161 161 162 162 162 164 166 168 170 170 170 171 172 174 176 178 179 179 179 177 175 172 170 169 167 168 171 172 172 173 174 175 174 172 177 182 181 182 185 189 194 199 204 205 208 210 212 212 214 219 229 244 254 261 268 275 281 291 291 278 289 12 38 92 125 154 164 172 170 171 166 167 179 175 165 157 146 130 119 115 102 70 52 38
158 160 162 163 163 163 165 166 168 171 170 169 170 172 175 177 179 179 179 179 177 175 172 171 171 170 170 173 176 177 176 177 177 177 176 178 182 185 187 188 194 199 202 206 211 212 214 217 219 225 230 238 250 256 263 266 264 265 274 276 265 252 307 28 115 137 177 181 177 168 164 161 167 181 177 169 163 153 138 126 119 95 56 42 34
159 161 164 165 165 165 166 167 168 171 171 170 171 173 175 176 177 178 179 177 175 175 174 173 173 172 173 176 180 179 179 178 177 179 178 179 184 190 192 194 198 203 207 210 214 215 216 219 223 231 235 241 249 255 261 264 262 258 263 265 264 260 278 291 197 193 226 207 178 160 153 156 172 183 180 173 168 161 145 130 118 84 47 43 42
165 165 165 166 168 167 167 169 169 171 171 171 171 173 176 177 176 178 178 176 174 176 176 176 176 175 176 180 181 179 180 179 177 180 180 183 187 193 197 200 203 206 210 214 216 216 216 218 221 230 236 242 247 254 260 263 265 266 270 270 269 268 272 272 258 241 227 210 182 159 151 160 179 185 182 177 173 166 148 126 110 81 62 67 68
166 164 165 167 169 169 169 169 170 171 171 171 172 174 177 177 177 178 178 175 176 179 178 179 179 178 179 181 181 180 181 180 178 181 183 186 189 195 200 202 206 210 213 217 219 218 218 218 219 226 233 240 245 251 257 263 268 273 279 283 282 274 264 258 254 233 216 208 195 177 162 168 178 185 184 181 177 164 142 127 114 95 86 86 88
163 164 167 169 170 171 171 170 170 172 172 172 172 175 177 177 178 178 178 177 178 179 180 181 180 180 181 181 181 182 181 181 181 181 183 185 190 197 199 200 205 209 213 218 220 220 220 220 222 226 231 237 244 247 252 261 266 276 285 291 292 277 255 246 237 214 208 207 199 182 167 173 178 183 185 182 176 161 143 132 121 108 93 84 92
165 167 168 169 171 171 171 170 170 172 173 173 173 175 178 178 179 179 179 179 180 180 181 182 182 181 181 181 182 182 181 182 183 184 185 186 191 196 198 201 203 206 210 214 218 221 222 223 226 228 229 233 237 241 248 258 269 286 296 300 297 273 244 231 217 205 205 203 192 181 173 176 180 183 184 181 173 160 147 135 124 109 90 83 92
164 165 167 169 171 172 172 170 170 171 173 175 175 176 179 179 180 180 180 181 181 182 183 183 183 183 182 182 183 183 181 182 184 186 188 188 192 195 198 203 204 206 208 211 213 218 221 222 225 225 224 226 229 237 249 265 281 294 301 302 289 254 227 213 204 199 199 194 185 183 179 175 184 182 181 180 171 158 146 135 122 100 92 97 102
162 163 166 169 171 173 172 171 171 172 174 175 176 178 179 180 180 182 183 184 184 184 185 184 184 184 184 185 185 184 183 182 185 188 189 190 192 193 195 200 203 207 208 210 211 212 215 214 216 216 213 218 227 238 256 275 286 295 301 296 267 226 211 203 198 194 192 193 190 188 183 176 179 179 180 178 168 161 152 136 118 100 102 109 113
160 162 164 169 171 173 174 173 173 173 175 175 177 179 180 182 182 183 185 186 187 186 186 185 185 185 185 187 187 185 184 183 185 189 191 192 193 194 193 194 197 204 208 209 208 207 207 205 205 204 203 215 228 239 264 283 295 303 302 283 233 207 203 194 192 192 191 193 191 187 186 180 174 177 182 176 165 164 154 135 116 109 112 111 117
155 161 166 170 171 174 175 174 174 173 175 176 178 179 181 183 183 184 187 188 189 188 188 187 187 186 186 188 188 188 186 184 185 190 193 194 196 196 194 195 197 200 207 205 202 203 200 201 205 204 209 225 239 253 277 288 302 311 295 246 211 200 196 187 188 193 190 189 191 191 186 173 175 180 183 175 167 166 152 133 121 118 115 113 117
156 160 166 173 174 175 176 174 174 174 176 177 178 180 181 183 184 186 188 190 191 190 190 189 189 189 188 188 188 189 189 187 188 191 194 196 198 198 197 199 199 198 201 199 202 209 205 205 212 220 229 242 256 269 285 286 300 313 270 217 202 193 191 185 186 190 188 191 192 193 188 175 176 182 184 178 170 163 148 133 128 123 119 122 120
160 160 163 172 179 179 177 174 174 176 178 179 179 180 181 184 185 188 190 191 192 193 192 191 191 192 190 189 189 189 191 191 191 194 196 198 200 200 201 202 201 201 202 203 212 220 219 217 220 232 239 245 258 270 279 278 296 308 232 203 192 185 187 184 184 189 193 196 194 193 189 177 177 182 183 176 168 159 149 140 132 127 129 134 127
168 161 164 173 180 183 181 176 174 177 180 180 180 180 181 184 187 189 192 193 194 194 194 193 193 194 193 191 191 191 193 194 195 198 200 201 203 203 204 204 204 208 209 213 221 226 229 228 228 239 241 243 252 262 269 272 297 298 208 192 181 177 180 183 187 193 197 194 192 193 188 180 180 182 179 173 169 163 156 146 139 137 136 137 134
178 168 169 174 180 185 184 180 176 177 180 182 183 182 183 185 187 190 193 195 195 195 195 195 195 195 194 192 192 193 194 196 197 201 202 203 205 206 207 206 209 214 215 218 222 226 230 229 232 238 238 240 245 253 262 269 294 274 195 185 176 178 181 189 195 193 195 193 192 190 185 183 184 183 180 177 175 169 162 149 147 146 137 136 134
185 176 171 173 179 185 187 184 179 177 180 184 185 183 183 185 188 190 193 196 196 197 196 196 196 196 195 193 194 195 196 197 199 202 203 203 205 208 208 208 212 216 218 222 222 220 221 222 230 233 232 236 241 250 256 263 284 248 193 188 181 184 187 194 199 191 188 190 192 189 184 184 186 187 186 184 179 170 164 157 153 147 138 135 131
185 178 171 172 179 184 188 187 183 180 181 183 185 184 184 186 188 190 193 196 197 198 197 196 197 198 197 196 196 197 197 197 200 204 206 206 208 209 208 208 213 217 218 222 221 219 222 227 234 238 238 239 242 251 253 262 278 255 202 199 191 188 189 193 195 186 184 190 193 190 185 185 187 190 190 188 184 176 167 162 157 151 142 133 133
184 178 175 176 181 184 187 188 185 183 181 183 185 184 184 185 187 191 194 197 199 199 198 197 198 199 200 199 198 199 199 199 201 205 208 210 211 210 208 208 215 218 215 217 219 220 227 233 237 242 242 243 243 246 259 267 275 278 223 206 199 194 193 195 191 179 182 194 198 194 187 188 191 192 192 191 189 183 173 166 164 161 148 133 133
187 180 180 180 182 184 186 187 186 184 182 181 183 182 182 184 186 190 195 198 200 200 199 199 199 200 202 202 202 202 201 201 202 205 208 207 209 210 209 211 217 219 217 218 220 222 228 232 237 243 244 246 246 246 265 273 279 288 231 202 197 195 192 193 187 178 187 200 202 196 190 192 194 193 193 194 192 188 181 175 174 169 153 135 126
195 183 181 181 181 182 183 185 186 185 181 178 180 181 181 183 185 188 194 197 199 200 201 201 201 202 203 203 204 204 202 203 203 206 207 204 205 209 211 215 222 224 221 220 221 223 228 233 240 245 245 249 247 247 262 270 270 265 202 188 187 187 188 193 188 178 187 201 203 197 194 194 195 193 194 195 192 189 186 182 180 174 159 138 125
196 188 182 182 182 181 181 184 186 184 180 177 180 182 181 181 184 188 191 196 198 200 201 203 203 203 204 205 205 205 203 203 205 206 207 207 207 207 209 215 219 219 219 220 222 226 230 236 242 244 248 252 247 246 255 254 222 168 163 177 187 188 190 200 197 179 186 199 202 200 199 197 194 194 195 194 189 187 188 186 184 178 164 146 132
191 190 186 184 183 181 181 182 184 184 183 181 182 184 185 184 185 187 190 194 198 200 201 202 204 204 205 207 207 205 204 205 206 207 207 209 210 209 210 213 210 209 211 216 221 225 228 231 235 237 244 251 249 248 247 235 197 174 169 170 188 199 201 200 185 173 189 200 204 203 203 202 198 195 195 192 186 186 190 188 186 181 169 158 144
193 191 188 187 183 181 182 182 183 186 186 185 185 186 188 188 187 187 189 193 199 202 203 203 204 206 207 208 208 206 206 207 208 208 209 211 212 212 213 212 210 208 209 213 220 226 228 228 230 235 241 248 254 252 242 234 215 188 174 173 209 210 225 226 201 178 194 202 205 205 205 205 201 197 196 193 188 188 191 192 191 188 178 167 155
199 197 189 186 185 182 182 183 185 187 187 186 187 187 187 188 190 189 189 193 199 203 204 204 204 206 206 205 207 208 208 209 209 209 211 214 214 213 214 213 212 213 212 216 224 231 234 233 232 237 242 246 247 242 237 238 231 208 182 125 150 153 266 247 211 182 197 204 207 206 205 205 202 199 198 197 195 193 194 196 196 194 185 172 163
195 209 198 186 186 186 184 184 186 187 188 187 185 184 183 184 186 185 186 190 195 198 198 200 201 203 202 200 203 207 208 209 210 209 211 216 217 216 216 215 216 217 218 220 225 234 239 237 236 238 240 243 241 233 230 236 241 233 216 195 112 149 244 219 192 186 195 202 209 208 206 205 202 200 200 200 200 198 198 200 198 194 188 179 172
188 204 217 199 187 187 186 185 187 188 188 186 183 182 181 181 181 179 180 185 189 193 195 197 198 199 198 197 200 204 205 207 208 208 210 214 218 219 219 219 220 221 222 223 225 235 241 238 236 237 239 244 243 235 232 236 244 244 232 228 234 238 220 166 156 197 202 205 212 211 209 205 203 204 202 201 202 202 203 204 201 197 191 185 180
190 192 216 222 196 187 187 186 187 188 186 185 183 181 181 181 182 183 184 188 191 195 200 200 198 197 197 197 198 201 203 206 208 208 209 211 214 219 222 223 225 225 224 223 226 237 239 236 237 240 239 244 243 238 241 244 243 247 242 235 236 237 223 197 182 176 186 216 215 211 211 206 203 209 210 205 204 205 208 210 206 202 197 192 187
197 189 202 227 210 189 186 186 186 186 183 182 182 182 182 182 184 186 189 193 196 198 202 204 201 198 198 198 199 200 202 206 209 209 208 210 214 218 221 223 224 222 219 220 231 237 234 232 236 239 239 243 245 243 245 245 241 244 238 224 226 227 215 210 210 197 168 182 217 215 220 213 206 216 220 215 211 208 207 209 207 204 200 196 192
198 192 195 215 214 193 184 184 184 184 183 182 183 185 186 185 185 187 190 195 199 201 202 203 202 199 198 197 197 198 200 204 209 209 207 209 214 216 217 218 218 214 213 220 236 236 230 231 235 237 239 241 246 248 246 244 241 240 229 216 220 222 216 215 218 211 157 103 227 242 226 215 211 220 224 222 219 210 203 203 203 203 201 196 194
198 195 194 205 208 191 182 183 182 183 184 184 184 185 186 186 185 187 190 193 197 200 200 198 199 199 197 195 195 196 198 202 206 207 207 207 213 217 216 216 214 212 213 222 236 235 231 233 236 240 243 243 247 250 248 248 247 243 237 228 221 219 222 227 227 223 157 117 212 215 194 200 201 213 219 216 209 202 199 200 200 202 200 196 193
199 198 195 198 200 190 182 182 182 182 183 184 183 184 185 186 186 186 189 192 195 197 197 196 196 196 195 192 192 194 197 200 203 205 206 207 211 218 219 218 217 216 217 222 232 238 236 236 238 241 243 246 250 251 250 252 253 249 245 239 233 230 230 233 233 228 212 197 208 180 190 207 209 213 214 206 201 198 199 204 206 204 200 196 195
Height
771 773 774 774 776 778 782 783 784 785 786 788 790 792 793 795 796 797 799 800 802 803 803 804 805 806 808 809 810 811 812 812 813 813 814 815 816 817 818 819 819 820 820 820 821 821 822 823 824 824 824 825 825 825 825 825 825 825 826 826 826 826 826 827 827 827 827 827 826 826 826 826 827 827 826 826 826 826 825 825 824 824 824 824 824
766 770 773 774 775 778 781 782 785 785 786 788 791 793 794 795 796 798 799 801 802 804 804 805 806 807 808 809 811 812 813 813 814 815 815 816 817 819 819 820 820 821 821 821 822 822 823 824 825 825 825 825 826 826 826 826 826 827 827 827 827 827 828 828 828 828 828 828 827 827 827 827 827 827 827 827 827 826 826 826 825 825 825 825 825
764 767 770 773 775 777 780 782 784 785 786 788 792 793 794 796 796 798 799 801 803 804 805 806 806 807 809 810 811 812 814 814 815 816 817 818 819 820 820 821 821 822 822 822 823 823 824 824 825 826 826 826 827 827 827 827 827 828 828 828 828 828 829 829 829 829 829 829 828 828 828 828 828 827 827 827 827 827 827 827 826 826 825 826 826
765 764 766 771 774 777 780 782 784 786 786 788 792 794 795 796 797 799 799 801 803 805 806 806 807 808 810 810 812 813 814 815 816 817 818 819 820 821 821 822 822 823 823 824 824 824 825 825 826 827 827 827 828 828 828 828 828 829 829 829 829 829 830 830 830 830 830 830 829 829 829 828 828 828 828 828 828 828 828 827 827 827 827 827 826
766 764 762 765 771 776 779 782 784 785 786 788 791 794 795 797 798 799 800 802 803 805 806 807 808 809 810 811 813 814 815 816 817 818 819 820 821 822 823 823 824 824 824 825 825 825 826 826 827 828 828 828 829 829 829 829 829 830 830 830 830 831 831 831 831 831 831 831 831 830 830 829 829 829 828 829 829 829 828 828 828 828 828 827 827
763 765 762 762 767 773 778 781 783 785 786 787 791 793 795 797 798 800 801 802 803 805 806 807 808 810 811 812 813 814 816 817 818 819 820 821 822 823 823 824 824 825 825 826 826 827 827 828 828 828 829 829 829 830 830 830 830 830 831 831 831 832 832 832 832 832 832 832 832 831 831 830 830 830 829 830 830 830 829 829 829 829 829 828 828
762 765 764 761 764 770 777 780 782 784 786 787 790 793 795 797 798 800 801 802 804 805 807 808 809 811 811 812 813 815 816 818 819 820 821 822 822 823 824 825 825 826 826 827 827 828 828 829 829 829 830 830 830 831 831 831 831 831 832 832 832 833 833 833 833 833 833 832 833 832 831 831 831 830 830 830 830 831 831 830 830 830 829 829 828
762 765 765 763 763 768 774 778 781 783 785 787 789 793 795 797 798 799 801 802 804 805 807 808 810 811 812 813 814 815 817 818 820 821 822 823 823 824 825 825 826 827 827 828 828 829 829 830 830 830 831 831 831 832 832 832 832 832 832 833 833 833 834 834 834 833 833 833 833 833 832 831 831 831 831 831 831 831 831 831 830 830 830 830 829
761 764 766 765 765 769 773 777 780 782 784 786 788 792 795 796 798 799 801 802 804 805 807 809 810 812 813 814 814 816 817 819 820 821 823 823 824 825 825 826 827 828 828 829 829 830 830 831 831 831 832 832 832 832 833 833 833 833 833 833 834 834 834 834 834 833 833 833 833 833 832 832 832 831 832 831 831 831 831 832 831 831 830 830 830
759 762 765 765 767 770 773 777 780 782 783 785 787 791 794 796 797 798 800 802 803 805 807 809 810 812 813 814 815 816 817 819 821 822 823 824 825 825 826 827 827 828 829 829 830 831 831 831 832 832 832 832 833 833 833 833 833 834 834 834 834 834 834 834 834 833 833 833 833 833 832 832 832 832 832 832 832 832 832 832 832 831 831 831 831
756 760 763 764 768 770 773 777 779 782 783 784 787 790 793 795 797 798 800 801 803 805 806 808 810 812 813 815 815 817 818 819 821 822 824 825 826 826 827 827 828 829 829 830 830 831 832 832 832 832 833 833 833 834 834 834 834 834 834 834 834 834 834 834 834 834 834 834 834 833 833 832 832 832 832 832 832 832 832 832 832 832 832 832 831
753 756 761 765 768 771 773 776 779 781 783 785 786 788 792 795 796 798 799 801 802 804 806 808 810 812 813 815 816 817 818 820 821 823 824 825 826 827 827 828 829 829 830 830 831 832 832 833 833 833 833 833 834 834 834 834 834 834 834 834 834 834 834 834 834 835 834 834 834 833 833 832 832 832 832 832 832 832 832 832 833 833 832 832 832
751 753 758 764 767 771 773 776 779 781 782 784 786 788 791 794 796 797 799 800 802 804 806 808 810 812 813 815 816 817 818 820 822 823 824 826 827 827 828 829 829 830 830 831 832 832 833 833 833 833 833 833 834 834 834 834 834 834 834 834 834 834 834 834 834 834 834 833 834 834 833 833 832 832 832 832 832 832 832 832 833 833 833 833 833
747 751 754 760 766 770 773 776 778 780 782 784 786 788 790 793 795 797 798 799 801 803 805 808 809 811 813 815 816 817 819 820 822 823 825 826 827 828 828 829 829 830 831 831 832 832 833 833 833 833 833 834 834 834 835 835 835 835 835 835 835 835 834 834 834 833 833 832 833 834 834 833 832 832 832 832 832 832 832 832 833 833 833 833 833
743 746 751 757 762 768 772 775 777 780 781 783 785 787 790 792 795 796 798 799 801 803 805 807 809 811 812 814 816 817 819 820 822 823 825 826 827 828 829 829 830 830 831 832 832 833 833 833 833 833 834 834 834 835 835 835 835 835 835 835 835 835 835 834 834 833 832 832 833 834 834 833 833 832 832 832 832 832 833 833 833 833 833 833 833
746 744 748 753 758 764 769 773 776 779 781 783 784 786 789 791 794 796 798 799 801 803 805 807 808 810 812 814 816 817 819 820 821 823 825 826 827 828 829 830 830 831 831 832 833 833 833 833 834 834 834 834 835 835 835 835 835 835 835 835 834 834 834 834 834 833 832 832 833 834 834 834 833 833 833 833 833 833 833 833 833 833 833 833 833
750 748 747 751 755 760 766 770 774 778 780 782 784 786 788 790 793 795 797 799 801 803 804 806 808 809 811 813 815 817 819 820 821 823 825 826 827 828 829 830 830 831 832 832 833 833 834 834 834 834 834 835 835 835 835 835 835 835 834 834 834 834 834 834 833 832 831 832 833 834 834 834 833 833 833 833 833 833 833 833 833 833 833 833 833
749 749 748 750 754 758 763 768 772 777 779 781 784 785 787 790 792 795 797 799 800 802 804 806 807 809 811 813 815 817 818 819 820 822 824 826 827 828 829 830 830 831 832 833 833 833 834 834 834 834 835 835 835 835 835 835 835 835 834 834 834 834 834 834 833 832 831 832 833 833 833 834 833 833 833 833 833 833 833 833 833 833 833 833 833
745 748 749 750 753 757 761 767 771 775 778 780 783 784 786 789 791 794 796 798 800 802 804 805 807 808 810 812 815 816 818 819 820 821 823 825 827 828 829 830 831 831 832 832 833 833 834 834 835 835 835 835 835 835 835 835 835 834 834 834 834 834 834 834 833 832 832 832 833 834 834 834 833 833 833 833 833 833 833 833 833 833 833 833 833
744 746 748 750 753 756 760 766 770 774 777 779 782 784 786 788 791 794 795 798 800 802 804 805 806 808 810 812 814 816 817 819 820 821 823 825 826 828 829 830 831 831 832 832 833 833 834 834 835 835 835 835 835 835 835 835 835 834 834 834 833 834 834 834 833 833 833 833 834 834 834 834 834 833 833 834 833 833 833 833 833 833 833 833 833
743 745 747 750 752 755 759 764 769 773 776 778 781 783 786 787 790 793 795 797 799 802 803 805 806 808 810 812 814 815 817 818 819 820 822 824 825 827 828 829 830 831 832 832 832 833 833 834 835 835 835 835 835 835 834 834 834 834 834 834 834 834 834 834 833 834 834 834 834 834 834 834 834 834 834 834 834 834 833 833 833 833 833 833 833
740 744 747 749 751 754 758 763 767 772 775 777 780 783 786 787 789 792 794 796 798 801 802 804 806 807 809 811 813 814 816 817 818 820 821 823 825 826 827 828 829 830 831 831 832 832 833 834 835 835 835 835 835 834 834 833 833 834 834 834 834 834 834 834 834 834 834 834 834 834 834 834 834 834 834 834 834 834 834 834 834 834 834 834 833
736 740 744 747 750 753 756 760 764 769 773 776 778 782 784 786 788 790 792 795 797 800 801 803 804 806 808 809 811 813 815 816 817 819 820 822 824 825 826 828 829 830 830 831 831 832 833 834 834 835 835 835 835 834 833 833 833 833 834 834 834 834 834 835 834 834 835 834 834 834 834 834 834 834 834 834 834 834 834 834 834 834 834 834 834
732 735 739 744 748 751 755 758 762 766 770 774 777 780 783 785 786 788 791 793 795 798 800 801 803 805 806 808 810 812 814 816 817 819 820 822 823 825 826 827 828 829 830 830 831 832 832 833 834 834 834 834 834 833 833 832 832 833 834 834 834 834 834 835 834 834 834 835 834 834 834 834 834 834 834 834 834 834 834 834 834 834 834 834 834
728 733 738 741 745 749 752 756 760 763 767 771 774 778 781 783 785 787 789 791 793 796 798 800 801 803 805 807 809 812 814 815 817 818 819 821 822 824 825 826 827 828 829 830 831 831 832 832 833 833 834 834 834 833 833 832 832 833 833 834 833 834 834 834 834 834 834 834 834 834 834 834 834 834 834 834 834 835 834 835 835 835 834 834 834
729 732 736 739 743 746 749 753 758 762 765 768 772 777 779 782 784 786 788 790 792 794 796 798 799 801 803 805 808 811 813 814 816 817 818 820 821 823 823 825 826 827 828 829 830 831 831 832 832 833 833 833 833 832 832 832 832 832 833 833 833 833 833 833 833 833 833 834 834 834 834 834 834 834 834 834 835 835 835 835 835 835 835 835 834
727 730 733 738 742 746 749 751 755 760 765 768 772 775 778 780 783 785 787 789 790 792 794 796 797 799 801 804 806 809 811 813 814 816 817 819 820 821 823 824 825 826 827 828 829 830 831 831 832 832 833 833 832 832 832 832 832 832 832 832 832 832 832 832 832 833 833 834 833 833 833 833 834 834 834 835 835 835 835 835 835 835 835 835 835
722 727 732 737 741 746 749 751 754 758 763 767 771 774 777 779 782 784 786 788 789 791 792 794 795 797 799 802 804 807 809 811 812 814 816 818 819 820 822 823 824 825 826 827 828 829 830 830 831 831 832 832 832 831 831 831 832 832 832 831 831 831 831 832 832 833 833 833 833 833 833 833 834 834 834 835 835 836 836 836 836 836 836 836 836
722 724 729 735 740 745 748 750 752 756 760 764 768 772 775 778 780 783 785 787 789 790 791 793 794 795 798 800 803 805 807 809 811 813 815 816 818 819 820 822 823 824 825 826 827 829 829 830 830 831 831 831 831 831 831 831 831 832 831 830 830 830 831 832 832 832 833 833 833 833 833 833 834 834 835 835 835 836 836 836 836 836 836 836 836
726 727 730 733 738 744 747 748 749 753 758 761 765 769 773 776 779 782 785 787 788 790 791 791 792 794 796 798 801 803 805 807 809 811 813 815 817 818 819 820 822 823 824 825 826 828 828 829 830 830 831 831 830 830 831 831 831 831 830 829 829 830 831 831 832 832 833 833 832 833 833 833 834 834 835 835 835 836 836 836 836 837 837 837 837
725 729 734 736 738 742 746 748 749 751 755 759 763 766 771 774 777 781 784 787 788 790 791 791 791 792 794 797 800 802 804 806 808 810 812 814 815 816 818 819 820 822 823 824 826 827 828 829 829 830 831 830 830 830 830 830 831 830 829 828 828 829 831 831 831 832 832 832 832 832 833 833 834 834 835 835 835 836 837 837 837 837 837 837 837
724 727 733 739 741 743 744 746 749 751 754 757 761 764 769 773 776 780 783 786 788 789 790 790 791 791 793 796 798 800 803 804 806 808 810 812 814 815 816 818 819 820 822 824 825 826 827 828 829 830 830 830 830 830 830 830 830 829 828 828 828 829 830 831 831 831 832 832 832 832 832 833 833 834 835 835 835 836 836 837 837 837 838 838 838
729 727 731 739 743 746 746 746 748 751 754 757 760 763 768 772 775 778 782 785 787 788 789 790 791 792 793 795 797 799 801 803 805 807 809 810 812 814 815 816 818 819 821 823 824 826 827 828 829 829 830 830 829 829 830 830 830 829 828 828 828 829 830 830 831 831 831 831 831 831 832 832 833 834 834 835 835 836 836 837 837 837 838 838 838
735 730 731 737 743 748 750 748 747 749 754 758 760 763 767 770 774 777 781 784 786 787 788 790 791 792 793 795 796 798 800 802 804 806 808 809 811 812 813 815 817 818 820 822 823 824 826 827 828 829 829 829 829 829 829 829 829 829 828 828 829 829 830 830 831 831 831 831 831 831 831 832 833 833 834 835 835 835 836 836 837 837 838 838 838
736 732 730 735 742 747 751 749 747 748 753 757 760 762 765 769 773 776 780 782 785 786 788 789 791 792 793 795 796 797 799 801 804 806 807 808 809 810 812 814 816 817 819 821 823 824 825 826 827 828 828 828 828 828 828 829 829 829 829 829 829 829 829 829 830 830 830 830 830 831 831 832 832 833 833 834 835 835 836 836 837 837 837 838 838
732 731 730 733 740 746 750 750 748 748 751 756 760 763 765 768 772 775 779 782 784 786 787 789 790 792 793 794 795 796 798 801 803 805 806 807 808 809 811 813 815 816 818 820 822 823 824 826 826 827 828 828 828 827 828 828 828 829 829 829 829 829 829 828 829 829 829 830 830 830 831 831 832 833 833 834 834 835 835 836 837 837 837 838 838
728 728 728 731 738 743 748 750 748 747 750 755 759 762 765 768 771 775 779 781 783 785 787 789 790 791 792 793 795 796 798 800 802 804 806 807 808 809 810 812 814 815 817 819 821 822 824 825 826 826 827 827 827 827 827 828 828 829 829 829 829 829 828 828 828 828 828 829 829 830 830 831 832 832 833 833 834 834 835 836 836 837 837 837 838
725 726 726 728 735 741 745 747 748 748 750 753 758 762 765 768 771 775 778 781 783 785 787 788 790 790 791 792 794 795 797 799 801 803 805 806 807 809 810 812 813 815 817 818 820 822 823 824 825 826 826 826 827 827 827 827 827 828 828 829 828 829 828 827 827 827 827 828 829 829 830 830 831 832 832 833 833 834 834 835 836 836 837 837 838
725 725 726 729 734 739 743 745 747 748 750 753 757 761 765 768 771 775 778 781 783 785 786 787 788 790 790 791 793 795 796 798 800 802 804 805 806 808 809 811 813 814 816 818 819 820 822 823 824 825 826 826 826 827 827 826 827 827 827 828 828 829 828 827 826 826 826 827 828 829 829 830 830 831 832 832 833 833 834 835 835 836 836 837 837
726 726 727 731 734 738 741 744 746 747 750 753 757 760 763 766 769 773 776 779 781 783 785 786 787 788 789 790 792 794 796 797 799 801 803 804 805 807 808 810 812 813 815 816 818 819 821 822 823 824 825 825 826 826 826 826 826 826 826 828 828 829 828 827 826 826 826 826 827 828 828 829 830 830 831 831 832 833 833 834 834 835 836 836 837
725 726 727 730 733 735 738 741 744 746 749 751 754 756 759 762 765 768 772 776 779 781 782 784 785 787 788 789 791 793 795 796 798 800 801 803 804 806 807 809 811 812 814 815 817 818 820 821 822 823 824 824 825 825 826 826 826 826 827 828 828 828 828 827 826 825 825 825 826 827 827 828 829 829 830 831 831 832 832 833 834 834 835 836 836
721 725 726 727 730 733 735 739 742 745 746 748 750 753 756 758 761 764 769 774 777 778 779 781 783 785 787 789 790 792 794 795 797 798 800 801 803 804 806 808 810 811 813 814 816 817 819 820 821 822 823 823 824 824 825 825 826 826 827 827 828 828 827 826 826 825 825 825 825 825 826 827 827 828 829 829 830 831 832 832 833 833 834 835 835
719 722 724 726 728 731 734 737 740 742 744 746 748 751 755 758 761 765 769 774 776 778 779 780 782 784 786 787 789 790 792 794 796 797 799 800 801 803 805 807 809 810 812 813 815 816 818 819 820 821 822 822 823 824 824 824 825 826 826 828 828 828 827 826 825 825 825 824 824 824 824 825 826 827 828 828 829 829 830 831 832 833 833 834 835
722 722 721 725 728 729 732 735 737 740 742 745 747 750 755 759 763 766 769 773 777 779 780 781 782 783 784 785 787 789 791 792 794 796 797 799 800 802 804 806 808 809 810 812 813 815 816 818 819 820 821 822 822 823 823 824 824 825 826 828 828 829 829 826 824 824 824 823 823 822 823 824 825 826 827 827 828 828 829 830 831 832 832 833 834
722 724 722 723 725 728 730 732 735 737 740 743 746 750 754 759 763 767 770 773 776 778 778 779 779 780 780 782 784 786 789 791 793 795 796 797 799 800 802 804 806 807 809 810 812 813 815 816 817 819 819 820 821 822 823 823 823 823 824 825 827 829 827 824 823 824 822 822 822 821 822 823 824 825 826 826 826 827 828 829 830 831 832 833 833
716 721 726 724 722 725 728 730 734 736 739 742 745 748 752 756 759 762 765 768 771 772 773 773 774 775 776 779 782 784 787 790 792 793 795 796 797 798 800 802 804 805 807 809 810 812 814 815 816 817 818 819 821 821 821 821 821 821 821 821 822 823 822 822 824 824 823 821 821 821 821 822 824 825 824 824 825 826 827 827 828 829 831 832 833
714 717 726 729 723 723 726 729 732 735 739 742 745 747 750 753 757 759 762 764 766 768 769 771 772 774 776 778 780 783 785 788 790 792 793 794 796 797 798 800 802 803 805 807 809 811 812 814 815 816 817 819 819 819 819 820 820 819 819 819 819 818 818 819 821 822 823 822 820 820 821 822 824 825 824 824 824 825 826 826 827 828 830 831 832
712 713 721 730 727 723 725 728 731 735 737 741 744 746 749 751 755 758 762 764 766 768 770 771 772 774 776 777 779 781 784 786 788 790 791 793 794 795 796 798 800 802 804 806 808 810 811 813 814 815 816 817 817 817 817 817 818 817 817 818 817 817 816 815 816 817 819 821 821 821 822 823 824 825 826 825 824 824 825 825 826 827 829 830 831
710 711 716 727 728 723 724 727 730 733 735 738 741 744 747 749 753 757 761 764 766 769 770 771 773 774 775 776 777 780 782 785 787 788 790 791 792 793 795 797 798 800 802 805 807 809 810 811 813 814 815 815 816 816 815 815 816 816 816 816 816 815 815 814 814 814 816 820 823 823 823 823 823 823 824 826 826 825 825 825 825 826 827 829 831
709 709 712 722 726 721 722 725 727 730 732 735 737 741 744 748 751 755 759 763 766 768 770 771 772 772 773 774 776 778 780 783 785 786 788 790 791 792 793 795 797 799 802 804 806 808 809 810 812 813 813 814 814 813 813 813 814 814 815 814 814 813 813 813 813 814 816 819 820 821 821 821 821 821 821 824 826 827 826 825 825 825 826 828 830
711 711 711 717 721 719 719 722 725 728 731 733 736 738 742 745 749 753 757 761 765 767 768 769 770 770 771 772 774 776 778 781 783 785 787 788 790 791 792 794 796 798 801 803 805 806 808 810 811 811 812 811 811 811 811 812 812 812 812 812 812 811 811 811 811 812 814 816 817 817 818 818 819 820 820 822 823 825 826 826 824 824 826 827 829